Total_Precipitation_Accumulation
0.35 0.22 0.27 0.26 0.18 0.15 0.16 0.20 0.24 0.22 0.20 0.20 0.21 0.21 0.21 0.20 0.18 0.17 0.16 0.16 0.18 0.24 0.29 0.35 0.38 0.43 0.48 0.47 0.35 0.23 0.18 0.17 0.15 0.15 0.18 0.24 0.28 0.30 0.36 0.33 0.36 0.39 0.40
0.25 0.20 0.25 0.22 0.20 0.19 0.18 0.20 0.18 0.18 0.18 0.17 0.16 0.16 0.17 0.17 0.17 0.18 0.18 0.20 0.23 0.28 0.27 0.29 0.33 0.36 0.38 0.33 0.26 0.18 0.15 0.14 0.16 0.22 0.28 0.37 0.48 0.51 0.58 0.51 0.51 0.56 0.40
0.22 0.23 0.22 0.21 0.22 0.22 0.19 0.19 0.16 0.17 0.20 0.20 0.18 0.16 0.15 0.14 0.14 0.15 0.16 0.21 0.28 0.33 0.32 0.28 0.27 0.28 0.28 0.24 0.19 0.15 0.16 0.20 0.27 0.38 0.61 0.71 0.71 0.75 0.76 0.66 0.60 0.48 0.35
0.23 0.27 0.23 0.24 0.27 0.26 0.22 0.23 0.22 0.23 0.23 0.25 0.26 0.23 0.20 0.16 0.16 0.17 0.18 0.22 0.29 0.33 0.30 0.26 0.24 0.22 0.20 0.16 0.15 0.15 0.21 0.32 0.42 0.60 0.97 0.93 0.81 0.88 0.79 0.70 0.65 0.58 0.49
0.28 0.28 0.25 0.21 0.27 0.32 0.31 0.32 0.32 0.30 0.32 0.33 0.36 0.35 0.29 0.22 0.19 0.21 0.24 0.25 0.29 0.34 0.36 0.30 0.24 0.19 0.16 0.16 0.16 0.17 0.23 0.34 0.56 0.87 1.24 1.38 1.33 1.19 0.89 0.75 0.71 0.67 0.65
0.34 0.37 0.30 0.29 0.32 0.43 0.41 0.38 0.40 0.39 0.39 0.44 0.45 0.43 0.36 0.27 0.25 0.28 0.32 0.34 0.36 0.40 0.44 0.38 0.34 0.26 0.21 0.19 0.19 0.22 0.30 0.49 0.62 0.94 1.30 1.59 1.52 1.40 1.08 0.88 0.74 0.77 0.76
0.44 0.47 0.41 0.38 0.39 0.49 0.47 0.44 0.41 0.42 0.42 0.50 0.52 0.48 0.42 0.34 0.31 0.33 0.39 0.42 0.47 0.50 0.48 0.43 0.38 0.33 0.30 0.28 0.30 0.35 0.46 0.65 0.74 1.03 1.32 1.40 1.46 1.43 1.26 1.13 0.90 0.74 0.72
0.47 0.46 0.40 0.40 0.41 0.53 0.56 0.49 0.45 0.45 0.48 0.57 0.60 0.55 0.45 0.40 0.41 0.47 0.49 0.53 0.58 0.54 0.47 0.44 0.42 0.38 0.38 0.40 0.41 0.48 0.56 0.64 0.61 0.86 1.17 1.33 1.23 1.27 1.40 1.34 1.08 0.86 0.73
0.55 0.54 0.52 0.55 0.54 0.55 0.54 0.51 0.56 0.52 0.57 0.66 0.63 0.64 0.55 0.48 0.57 0.64 0.63 0.64 0.66 0.58 0.49 0.47 0.47 0.41 0.44 0.50 0.49 0.51 0.56 0.59 0.56 0.78 1.01 1.40 1.20 1.32 1.50 1.33 1.12 0.99 0.86
1.07 1.12 0.95 0.91 0.82 0.64 0.55 0.55 0.58 0.58 0.66 0.77 0.70 0.63 0.61 0.60 0.62 0.66 0.63 0.63 0.61 0.53 0.48 0.50 0.51 0.45 0.43 0.44 0.42 0.46 0.52 0.46 0.43 0.64 1.12 1.24 1.28 1.55 1.67 1.47 1.25 1.11 1.03
1.61 1.70 1.39 1.04 0.89 0.89 0.76 0.63 0.68 0.64 0.66 0.72 0.72 0.68 0.71 0.89 0.98 0.95 0.72 0.72 0.67 0.61 0.58 0.58 0.54 0.47 0.41 0.40 0.48 0.57 0.54 0.41 0.58 0.83 1.10 1.29 1.46 1.78 1.90 1.68 1.44 1.30 1.16
1.95 1.89 1.72 1.30 1.32 1.43 1.13 0.99 0.93 0.85 0.81 0.78 0.87 0.87 0.95 1.35 1.43 1.16 1.09 0.94 0.90 0.81 0.74 0.74 0.73 0.62 0.52 0.52 0.67 0.69 0.52 0.53 0.82 1.05 1.24 1.55 1.80 2.01 1.96 1.71 1.51 1.42 1.36
2.14 1.76 1.49 1.41 1.35 1.48 1.45 1.36 1.28 1.25 1.32 1.31 1.32 1.28 1.45 1.54 1.40 1.21 1.36 1.21 1.13 1.04 1.05 1.11 0.95 0.79 0.81 0.88 0.93 0.85 0.75 0.82 1.02 1.15 1.37 1.71 1.91 2.09 2.12 1.88 1.64 1.54 1.54
2.02 1.85 1.74 1.71 1.62 1.63 1.85 1.85 1.77 1.76 1.67 1.55 1.56 1.47 1.74 1.89 1.77 1.78 1.81 1.71 1.78 1.76 1.72 1.53 1.33 1.13 1.06 1.01 0.97 0.99 1.06 1.09 1.22 1.37 1.62 1.75 1.80 1.88 1.99 1.98 1.89 1.78 1.70
2.22 2.02 1.94 1.98 1.95 1.89 2.15 2.27 2.11 2.10 1.92 1.76 1.73 1.74 1.85 1.92 1.97 2.15 2.17 2.27 2.18 2.07 1.92 1.76 1.49 1.45 1.34 1.20 1.13 1.09 1.22 1.36 1.46 1.64 1.71 1.78 1.73 1.72 1.90 2.09 2.14 2.10 1.96
2.56 2.28 2.05 2.05 1.96 1.92 2.07 2.24 2.22 2.14 2.16 2.10 2.00 1.95 1.98 2.10 2.29 2.35 2.41 2.39 2.23 2.03 2.02 1.99 1.82 1.78 1.68 1.56 1.39 1.39 1.41 1.44 1.56 1.65 1.76 1.91 1.65 1.55 1.77 2.05 2.23 2.29 2.31
2.81 2.75 2.49 2.32 2.27 2.24 2.17 2.15 2.14 2.17 2.35 2.28 2.31 2.35 2.21 2.16 2.28 2.38 2.50 2.46 2.34 2.24 2.20 2.09 2.08 2.04 1.92 1.82 1.74 1.69 1.65 1.59 1.56 1.61 1.80 1.97 1.90 1.81 1.86 1.95 2.09 2.23 2.35
3.32 3.22 2.72 2.34 2.45 2.55 2.60 2.58 2.62 2.59 2.68 2.59 2.42 2.55 2.49 2.50 2.44 2.45 2.43 2.33 2.27 2.22 2.36 2.43 2.37 2.32 2.20 2.12 2.08 1.89 1.83 1.81 1.68 1.68 1.77 1.87 2.13 2.19 2.14 1.96 1.92 2.03 2.21
3.93 3.68 2.97 2.65 2.67 2.77 2.82 2.97 3.14 3.21 3.18 3.06 2.89 2.89 2.76 2.81 2.76 2.73 2.79 2.70 2.56 2.59 2.58 2.40 2.46 2.55 2.57 2.44 2.14 1.99 1.86 1.88 1.83 1.73 1.75 1.76 1.96 2.20 2.22 2.09 2.01 2.00 2.12
4.09 3.95 3.42 3.11 3.21 3.09 3.03 3.22 3.36 3.40 3.40 3.44 3.46 3.44 3.25 3.14 3.18 3.27 3.31 3.22 3.01 2.97 2.97 2.98 2.91 2.68 2.52 2.41 2.16 2.12 1.99 1.83 1.79 1.72 1.65 1.68 1.74 1.73 1.86 1.89 1.97 1.94 1.96
3.33 3.36 3.49 3.41 3.43 3.44 3.35 3.39 3.59 3.76 3.78 3.73 3.82 3.88 3.73 3.62 3.67 3.82 3.82 3.76 3.53 3.34 3.19 3.11 3.03 2.81 2.55 2.35 2.32 2.22 1.99 1.79 1.78 1.72 1.66 1.66 1.54 1.50 1.65 1.83 1.79 1.72 1.73
3.09 3.21 3.34 3.28 3.48 3.73 4.04 4.45 4.74 4.90 4.83 4.69 4.63 4.52 4.36 4.21 4.15 4.10 4.11 3.91 3.66 3.49 3.26 3.05 2.96 2.80 2.57 2.42 2.37 2.42 2.17 1.98 1.73 1.55 1.60 1.57 1.50 1.48 1.46 1.48 1.58 1.58 1.55
2.70 2.93 3.07 3.32 3.77 4.22 4.76 5.50 5.88 5.72 5.36 5.19 4.92 4.82 4.60 4.33 4.23 4.21 3.97 3.76 3.55 3.35 3.21 2.99 2.86 2.77 2.55 2.42 2.39 2.53 2.35 2.14 1.91 1.75 1.58 1.48 1.47 1.49 1.47 1.44 1.44 1.52 1.52
2.40 2.79 3.11 3.52 4.09 4.68 5.17 5.67 5.95 5.90 5.66 5.42 5.00 4.63 4.27 3.94 3.71 3.57 3.46 3.24 3.11 2.98 2.85 2.66 2.61 2.55 2.43 2.25 2.20 2.10 2.02 1.95 1.90 1.78 1.63 1.47 1.43 1.46 1.43 1.37 1.39 1.47 1.49
2.25 2.70 3.10 3.51 4.10 4.63 5.14 5.50 5.74 5.80 5.68 5.33 4.70 4.11 3.74 3.43 3.17 2.90 2.66 2.56 2.55 2.47 2.28 2.10 2.03 2.00 1.96 1.90 1.88 1.79 1.74 1.70 1.69 1.65 1.61 1.54 1.47 1.38 1.31 1.29 1.28 1.31 1.36
2.02 2.51 2.89 3.21 3.88 4.57 5.10 5.46 5.69 5.70 5.42 4.83 4.22 3.69 3.37 3.10 2.82 2.58 2.39 2.20 2.12 2.02 1.86 1.67 1.55 1.53 1.57 1.60 1.62 1.59 1.49 1.45 1.46 1.50 1.46 1.40 1.37 1.32 1.27 1.23 1.20 1.20 1.24